Location: Wald
(31.7579°N, 86.6655°W)
Time: 11:39:27
(UTC+00:00)

ATLAS CENTAUR R/B - Pass Details

Date: 14 July 2020
Orbit: 475 x 672 km, 64.7° (Epoch: 13 July)

Event Time Altitude Azimuth Distance (km) Brightness Sun altitude
Rises 03:02:50 0° 313° (NW) 2,523 6.2 -22.9°
Reaches altitude 10° 03:05:23 10° 295° (WNW) 1,642 4.7 -23.3°
Maximum altitude 03:08:00 19° 249° (WSW) 1,198 3.2 -23.7°
Enters shadow 03:08:23 19° 240° (WSW) 1,211 3.2 -23.7°
